Weather History for KD50 - March, 2013

Change the Weather History Date:

Friday, March 15, 2013

  Actual Average (KISN) Record (KISN)
Temperature  
Mean Temperature 7 °F 29 °F  
Max Temperature 21 °F 40 °F 68 °F (2012)
Min Temperature -7 °F 18 °F -32 °F (1897)
Degree Days  
Heating Degree Days 58 36  
Month to date heating degree days 594  
Since 1 July heating degree days 7362  
Cooling Degree Days 0 0  
Month to date cooling degree days 0  
Year to date cooling degree days 0  
Moisture  
Dew Point 4 °F    
Average Humidity 86    
Maximum Humidity 93    
Minimum Humidity 78    
Precipitation  
Precipitation 0.30 in 0.02 in 1.01 in (1920)
Month to date precipitation 0.32  
Year to date precipitation 1.30  
Sea Level Pressure  
Sea Level Pressure 30.06 in    
Wind  
Wind Speed 17 mph (East)    
Max Wind Speed 28 mph    
Max Gust Speed 31 mph    
Visibility 5 miles    
Events Rain , Snow    
T = Trace of Precipitation, MM = Missing Value Source: NWS Daily Summary

Daily Weather History Graph

Daily Weather History Graph

Search for Another Location

Airport or City:

Trip Planner

Search our weather history database for the weather conditions in past years. The results will help you decide how hot, cold, wet, or windy it might be!

Date:

Astronomy

Mar. 15, 2013 Rise Set
Actual Time 8:05 AM CDT 7:58 PM CDT
Civil Twilight 7:34 AM CDT 8:30 PM CDT
Nautical Twilight 6:57 AM CDT 9:07 PM CDT
Astronomical Twilight 6:19 AM CDT 9:45 PM CDT
Moon 9:35 AM CDT (3/15) No Moon Set
Length of Visible Light 12h 56m
Length of Day
11h 53m
Waxing Crescent, 15% of the Moon is Illuminated
Mar 15
Waxing Crescent
Mar 19
First Quarter
Mar 27
Full
Apr 2
Last Quarter
Apr 10
New

Hourly Weather History & Observations

Time (CDT) Temp. Windchill Dew Point Humidity Pressure Visibility Wind Dir Wind Speed Gust Speed Precip Events Conditions
12:15 AM 21.2 °F 8.3 °F 19.4 °F 93% 30.10 in 4.0 mi East 13.8 mph - N/A Snow Light Snow
12:35 AM 21.2 °F 7.8 °F 19.4 °F 93% 30.08 in 5.0 mi East 15.0 mph - 0.01 in Snow Light Snow
12:55 AM 21.2 °F 7.8 °F 19.4 °F 93% 30.08 in 4.0 mi East 15.0 mph - 0.01 in Snow Light Snow
1:15 AM 21.2 °F 5.6 °F 19.4 °F 93% 30.08 in 2.0 mi East 20.7 mph 24.2 mph 0.01 in Snow Light Snow
1:35 AM 19.4 °F 4.1 °F 17.6 °F 93% 30.09 in 1.5 mi East 18.4 mph - 0.05 in Snow Light Snow
2:15 AM 19.4 °F 3.2 °F 17.6 °F 93% 30.08 in 1.8 mi East 20.7 mph - 0.01 in Snow Light Snow
2:35 AM 17.6 °F -0.6 °F 15.8 °F 93% 30.07 in 1.5 mi East 25.3 mph - 0.02 in Snow Light Snow
2:55 AM 17.6 °F 0.9 °F 15.8 °F 93% 30.07 in 1.5 mi East 20.7 mph 24.2 mph 0.04 in Snow Light Snow
3:15 AM 17.6 °F 1.3 °F 15.8 °F 93% 30.07 in 3.0 mi East 19.6 mph 29.9 mph N/A Rain Light Freezing Rain
3:35 AM 17.6 °F 0.5 °F 15.8 °F 93% 30.08 in 5.0 mi East 21.9 mph - N/A   Overcast
4:15 AM 17.6 °F 2.2 °F 14.0 °F 86% 30.04 in 5.0 mi East 17.3 mph - N/A   Overcast
4:35 AM 15.8 °F 0.9 °F 14.0 °F 93% 30.06 in 10.0 mi East 15.0 mph - N/A   Overcast
4:55 AM 15.8 °F -2.7 °F 14.0 °F 93% 30.04 in 7.0 mi East 24.2 mph - N/A   Overcast
5:15 AM 15.8 °F -2.7 °F 14.0 °F 93% 30.03 in 5.0 mi East 24.2 mph - N/A   Overcast
5:35 AM 15.8 °F -2.3 °F 12.2 °F 86% 30.02 in 4.0 mi East 23.0 mph - N/A   Overcast
5:55 AM 14.0 °F -5.5 °F 12.2 °F 93% 30.03 in 1.5 mi East 25.3 mph - N/A Snow Light Snow
6:15 AM 14.0 °F -4.3 °F 10.4 °F 86% 30.02 in 1.0 mi East 21.9 mph - 0.01 in Snow Light Snow
6:35 AM 14.0 °F -4.7 °F 10.4 °F 86% 30.02 in 1.2 mi East 23.0 mph - 0.02 in Snow Light Snow
6:55 AM 14.0 °F -5.1 °F 10.4 °F 86% 30.00 in 1.2 mi East 24.2 mph 28.8 mph 0.02 in Snow Light Snow
7:15 AM 12.2 °F -8.2 °F 10.4 °F 92% 30.00 in - East 26.5 mph - N/A Snow Heavy Snow
7:35 AM 12.2 °F -7.9 °F 8.6 °F 85% 29.99 in - East 25.3 mph 31.1 mph 0.02 in Snow Heavy Snow
7:55 AM 12.2 °F -7.1 °F 8.6 °F 85% 29.99 in 1.5 mi East 23.0 mph 26.5 mph 0.03 in Snow Light Snow
8:15 AM 10.4 °F -9.9 °F 8.6 °F 92% 29.98 in 0.5 mi East 24.2 mph - N/A Snow Snow
8:35 AM 10.4 °F -8.6 °F 8.6 °F 92% 29.98 in - East 20.7 mph 27.6 mph 0.01 in Snow Heavy Snow
8:55 AM 10.4 °F -9.5 °F 6.8 °F 85% 29.98 in 0.5 mi East 23.0 mph - 0.01 in Snow Snow
9:15 AM 10.4 °F -8.6 °F 6.8 °F 85% 29.98 in 1.0 mi East 20.7 mph 26.5 mph N/A Snow Light Snow
9:35 AM 8.6 °F -11.0 °F 6.8 °F 92% 29.98 in 1.0 mi East 20.7 mph 27.6 mph 0.01 in Snow Light Snow
10:55 AM 6.8 °F -15.9 °F 3.2 °F 85% 29.97 in - East 27.6 mph - 0.04 in Snow Heavy Snow
11:15 AM 6.8 °F -15.1 °F 1.4 °F 79% 29.98 in - East 25.3 mph - 0.01 in Snow Heavy Snow
11:35 AM 6.8 °F -13.8 °F 1.4 °F 79% 30.01 in - East 21.9 mph 26.5 mph 0.02 in Snow Heavy Snow
11:55 AM 5.0 °F -16.2 °F 1.4 °F 85% 30.01 in - East 21.9 mph - 0.02 in Snow Heavy Snow
12:15 PM 5.0 °F -15.2 °F 1.4 °F 85% 30.02 in - East 19.6 mph - N/A Snow Heavy Snow
12:35 PM 5.0 °F -15.7 °F 1.4 °F 85% 30.03 in - East 20.7 mph - N/A Snow Heavy Snow
12:55 PM 5.0 °F -17.1 °F 1.4 °F 85% 30.02 in - East 24.2 mph - 0.02 in Snow Heavy Snow
1:15 PM 5.0 °F -15.2 °F 1.4 °F 85% 30.02 in - East 19.6 mph 26.5 mph N/A Snow Heavy Snow
1:35 PM 5.0 °F -15.2 °F 1.4 °F 85% 30.02 in - East 19.6 mph - 0.01 in Snow Heavy Snow
1:55 PM 5.0 °F -14.7 °F 1.4 °F 85% 30.02 in 0.8 mi East 18.4 mph - 0.02 in Snow Light Snow
2:15 PM 5.0 °F -15.2 °F 1.4 °F 85% 30.02 in - East 19.6 mph 25.3 mph N/A Snow Heavy Snow
2:35 PM 5.0 °F -14.7 °F 1.4 °F 85% 30.03 in 1.0 mi East 18.4 mph - 0.01 in Snow Light Snow
2:55 PM 6.8 °F -12.4 °F 1.4 °F 79% 30.03 in - East 18.4 mph - 0.03 in Snow Heavy Snow
3:15 PM 6.8 °F -11.8 °F 1.4 °F 79% 30.03 in 3.0 mi East 17.3 mph - N/A Snow Light Snow
3:35 PM 6.8 °F -11.3 °F 1.4 °F 79% 30.03 in 3.0 mi East 16.1 mph - N/A   Haze
3:55 PM 6.8 °F -10.0 °F 1.4 °F 79% 30.04 in - East 13.8 mph - N/A Snow Heavy Snow
4:15 PM 6.8 °F -11.3 °F 1.4 °F 79% 30.05 in - East 16.1 mph - N/A Rain Light Freezing Rain
4:35 PM 6.8 °F -10.7 °F 1.4 °F 79% 30.05 in 4.0 mi East 15.0 mph - N/A Rain Light Freezing Rain
4:55 PM 6.8 °F -11.3 °F 1.4 °F 79% 30.05 in 5.0 mi East 16.1 mph - N/A Snow Light Snow
5:15 PM 5.0 °F -13.0 °F -0.4 °F 78% 30.05 in - East 15.0 mph - N/A   Overcast
5:35 PM 5.0 °F -12.3 °F -0.4 °F 78% 30.07 in 9.0 mi East 13.8 mph - N/A   Overcast
5:55 PM 5.0 °F -10.8 °F -0.4 °F 78% 30.08 in - ENE 11.5 mph - N/A   Overcast
6:15 PM 5.0 °F -8.1 °F -0.4 °F 78% 30.10 in - East 8.1 mph - N/A   Overcast
6:35 PM 5.0 °F -8.1 °F -0.4 °F 78% 30.11 in - ENE 8.1 mph - N/A   Mostly Cloudy
6:55 PM 3.2 °F -11.3 °F -0.4 °F 85% 30.11 in - ENE 9.2 mph - N/A   Unknown
7:15 PM 3.2 °F -9.1 °F -0.4 °F 85% 30.12 in - ENE 6.9 mph - N/A   Unknown
7:35 PM 1.4 °F -9.9 °F -2.2 °F 85% 30.12 in 10.0 mi East 5.8 mph - N/A   Partly Cloudy
7:55 PM -0.4 °F -12.0 °F -2.2 °F 92% 30.11 in 10.0 mi East 5.8 mph - N/A   Clear
8:15 PM -0.4 °F -12.0 °F -4.0 °F 85% 30.12 in 10.0 mi East 5.8 mph - N/A   Clear
8:35 PM -0.4 °F - -4.0 °F 85% 30.13 in 10.0 mi Calm Calm - N/A   Clear
8:55 PM -0.4 °F -10.4 °F -4.0 °F 85% 30.13 in 10.0 mi ENE 4.6 mph - N/A   Clear
9:15 PM -2.2 °F -12.5 °F -5.8 °F 85% 30.14 in 10.0 mi NE 4.6 mph - N/A   Clear
9:35 PM -2.2 °F - -7.6 °F 78% 30.15 in 10.0 mi Calm Calm - N/A   Clear
9:55 PM -4.0 °F - -7.6 °F 85% 30.15 in 10.0 mi Calm Calm - N/A   Clear
10:15 PM -4.0 °F - -7.6 °F 85% 30.16 in 10.0 mi Calm Calm - N/A   Clear
10:35 PM -4.0 °F - -9.4 °F 78% 30.16 in 10.0 mi Calm Calm - N/A   Clear
10:55 PM -5.8 °F - -9.4 °F 84% 30.16 in 10.0 mi Calm Calm - N/A   Clear
11:15 PM -7.6 °F - -11.2 °F 84% 30.17 in 10.0 mi Calm Calm - N/A   Clear
11:35 PM -7.6 °F -18.8 °F -11.2 °F 84% 30.18 in - SW 4.6 mph - N/A   Unknown
11:55 PM - - - N/A% 30.18 in - WSW 4.6 mph - N/A   Unknown